sat.trackr.live / text

‹ back to catalog

STARLINK-36436

NORAD 67626 · 2026-020K

PAYLOAD ACTIVE UNKNOWN

§ Identity

Operator
Country
US
Launch date
2026-01-30
Launch site
AFETR
Launch vehicle
Mass (kg)
RCS (m²)

Purposes: comms

External: N2YO · Heavens-Above · Gunter

§ Orbital elements

Epoch: 2026-09-19T00:27:48.735648Z

Period
94.27 min
Inclination
43.0053°
Eccentricity
0.0001569
Mean motion
15.27590543 rev/d
Perigee alt
481.9 km
Apogee alt
484.1 km
Semi-major
6,861.2 km
B*
4.3199e-4
RAAN
127.7129°
Arg perigee
262.6861°
Mean anomaly
97.3812°
Rev number
3,568

§ Raw data

STARLINK-364361 67626U 26020K   26262.01931407  .00011648  00000+0  43199-3 0  99982 67626  43.0053 127.7129 0001569 262.6861  97.3812 15.27590543 35688

JSON: /api/v1/satellites/67626 · /tle

For live sub-satellite position, see the globe view (requires WebGL).

§ Visibility from observer

Set your observer location to see the next 7 days of passes ≥ 10°. The values pass through the URL so the page stays shareable.

No JS? Fill the form by hand. The geolocation button needs JavaScript.